COSMOS 1275 DEB, 17626

Orbit data source: Space-Track

COSMOS 1275 DEB, 17626 is space debris in LEO originally from a launch on Thu, 04 Jun 1981 UTC launched from the Plesetsk Missile And Space Complex (PKMTR). Debris objects in space refer to the collection of defunct objects orbiting the Earth. Examples of debris include non-operational satellites, rocket bodies, and fragments generated from explosions, collisions, or faulty payload assembly.

Loading next visibility...
Identifier
17626, 1981-053KV
Orbit
LEO
Country
Flag of CISCIS
Related business
Manufacturer
Unknown
Mission
Spacecraft
Bus & Motor
Unknown
Mass
Unknown
Launch date (UTC)
1981-06-04 (45 years ago)
Launch vehicle
Unknown
Launch site
Plesetsk Missile And Space Complex (PKMTR)
Object type
Payload
Rocket body
Debris
Shape & HBR
Unknown shape, 0.1 m
Radar Cross Section
Medium (>0.1 m² and <1 m²)

Expand to show TLE details & history
Last TLE update: 2 days ago

TLE from 2 days ago
0 COSMOS 1275 DEB
1 17626U 81053KV  26149.36328769  .00000512  00000-0  58359-3 0  9996
2 17626  82.8693 167.5712 0138755 311.9355 108.5284 13.64434257 36832
Epoch: 2026-05-29T08:43Z
TLE epoch observation values (Epoch: 2026-05-29T08:43:08.056Z)
Latitude
61.23271°
Longitude
162.99543°
Altitude
1,063.977 km
Speed
7.309 km/s
True Right ascension
12h 02m 41s
True Declination
61° 05' 36"
Sunlit
Object was in daylight at epoch
Visualization orbit readout
Latitude
Unknown
Longitude
Unknown
Altitude
Unknown
Speed
Unknown
Apparent Right ascension
Unknown
Apparent Declination
Unknown
Sunlit
N/A
Visualization observer readout
Local Sidereal Time
07:01:56
Azimuth
Unknown
Elevation
Unknown
Doppler factor
Unknown
Orbital elements
Apogee altitude
1,119.394 km
Perigee altitude
914.178 km
Semi-major axis
7,394.923 km
Eccentricity
0.01388
Inclination
82.8693°
RAAN
167.5712°
Arg. of periapsis
311.9355°
True anomaly
110.02756°
Mean anomaly
108.5284°
Eccentric anomaly
109.27883°
Mean motion
3.41305 °/min
Orbital period
105.48 mins
BSTAR
0.00058359
Loading maneuver chart data...
Computing Atmospheric mass density...
Loading historical data...
Loading historical data...
Loading historical data...
Loading historical data...
Loading historical data...
Loading historical data...
Loading historical data...

Documentation

Showing up to 5 results
|